Orbital Elements at Epoch 2459200.5 (2020-Dec-17.0) TDB
Reference: JPL 85 (heliocentric ecliptic J2000)
Element | Value | Uncertainty (1-sigma) | Units |
e | .6555633627138924 | 2.277e-07 | |
a | .9683352995173063 | 1.4134e-08 | au |
q | .3335301543311768 | 2.2453e-07 | au |
i | 36.25575633277099 | 1.9865e-05 | deg |
node | 208.8633454015492 | 3.4116e-06 | deg |
peri | 43.92540613424789 | 1.6518e-05 | deg |
M | 21.55346361669835 | 0.00011562 | deg |
tp | 2459179.662210690231 (2020-Nov-26.16221069) | 0.00011133 | TDB |
period | 348.046341178547 0.95 | 7.6202e-06 2.086e-08 | d yr |
n | 1.034345020783657 | 2.2646e-08 | deg/d |
Q | 1.603140444703436 | 2.34e-08 | au |
|
| | Orbit Determination Parameters
Additional Information
|